Inverness, FL

3:08 AM EDT on September 26, 2016 (GMT -0400)
Inverness

Weather History for KINF - May, 2013

Change the Weather History Date:

Saturday, May 18, 2013

  Actual Average (KOCF) Record (KOCF)
Temperature  
Mean Temperature 78 °F -  
Max Temperature 91 °F 86 °F 91 °F (1998)
Min Temperature 64 °F 61 °F 51 °F (2014)
Cooling Degree Days 12    
Growing Degree Days 28 (Base 50)    
Moisture  
Dew Point 65 °F    
Average Humidity 69    
Maximum Humidity 100    
Minimum Humidity 36    
Precipitation  
Precipitation 0.00 in - - ()
Sea Level Pressure  
Sea Level Pressure 30.09 in    
Wind  
Wind Speed 1 mph (WSW)    
Max Wind Speed 8 mph    
Max Gust Speed -    
Visibility 9 miles    
Events Rain , Thunderstorm    
Averages and records for this station are not official NWS values.
T = Trace of Precipitation, MM = Missing Value Source: NWS Daily Summary

Daily Weather History Graph

Daily Weather History Graph

Search for Another Location

Airport or City:

Trip Planner

Search our weather history database for the weather conditions in past years. The results will help you decide how hot, cold, wet, or windy it might be!

Date:

Astronomy

May. 18, 2013 Rise Set
Actual Time 6:36 AM EDT 8:15 PM EDT
Civil Twilight 6:10 AM EDT 8:41 PM EDT
Nautical Twilight 5:39 AM EDT 9:12 PM EDT
Astronomical Twilight 5:06 AM EDT 9:45 PM EDT
Moon 1:49 PM EDT (5/18) 1:54 AM EDT (5/18)
Length of Visible Light 14h 31m
Length of Day
13h 39m
First Quarter, 55% of the Moon is Illuminated
May 18
First Quarter
May 25
Full
May 31
Last Quarter
Jun 8
New
Jun 16
First Quarter

Hourly Weather History & Observations

Time (EDT) Temp. Heat Index Dew Point Humidity Pressure Visibility Wind Dir Wind Speed Gust Speed Precip Events Conditions
12:15 AM 73.4 °F - 64.4 °F 73% 30.12 in 10.0 mi Calm Calm - N/A   Clear
12:35 AM 71.6 °F - 64.4 °F 78% 30.12 in 10.0 mi Calm Calm - N/A   Clear
12:55 AM 71.6 °F - 64.4 °F 78% 30.12 in 10.0 mi Calm Calm - N/A   Clear
1:15 AM 71.6 °F - 64.4 °F 78% 30.11 in 10.0 mi Calm Calm - N/A   Clear
1:35 AM 71.6 °F - 64.4 °F 78% 30.11 in 10.0 mi Calm Calm - N/A   Clear
1:55 AM 69.8 °F - 64.4 °F 83% 30.11 in 10.0 mi Calm Calm - N/A   Clear
2:15 AM 69.8 °F - 64.4 °F 83% 30.10 in 10.0 mi Calm Calm - N/A   Clear
2:35 AM 69.8 °F - 64.4 °F 83% 30.10 in 10.0 mi Calm Calm - N/A   Clear
2:55 AM 69.8 °F - 64.4 °F 83% 30.09 in 10.0 mi Calm Calm - N/A   Clear
3:15 AM 69.8 °F - 64.4 °F 83% 30.09 in 10.0 mi Calm Calm - N/A   Clear
3:35 AM 69.8 °F - 64.4 °F 83% 30.09 in 10.0 mi Calm Calm - N/A   Clear
3:55 AM 69.8 °F - 64.4 °F 83% 30.09 in 10.0 mi Calm Calm - N/A   Clear
4:15 AM 68.0 °F - 64.4 °F 88% 30.09 in 10.0 mi Calm Calm - N/A   Clear
4:35 AM 68.0 °F - 64.4 °F 88% 30.09 in 10.0 mi Calm Calm - N/A   Clear
4:55 AM 66.2 °F - 64.4 °F 94% 30.09 in 10.0 mi Calm Calm - N/A   Clear
5:15 AM 68.0 °F - 64.4 °F 88% 30.09 in 10.0 mi Calm Calm - N/A   Clear
5:35 AM 66.2 °F - 64.4 °F 94% 30.09 in 10.0 mi Calm Calm - N/A   Clear
5:55 AM 66.2 °F - 64.4 °F 94% 30.10 in 10.0 mi Calm Calm - N/A   Clear
6:15 AM 64.4 °F - 64.4 °F 100% 30.10 in 10.0 mi Calm Calm - N/A   Clear
6:35 AM 64.4 °F - 64.4 °F 100% 30.10 in 10.0 mi Calm Calm - N/A   Clear
6:55 AM 64.4 °F - 64.4 °F 100% 30.11 in 7.0 mi Calm Calm - N/A   Clear
7:15 AM 64.4 °F - 64.4 °F 100% 30.11 in 10.0 mi Calm Calm - N/A   Clear
7:35 AM 68.0 °F - 66.2 °F 94% 30.11 in 10.0 mi Calm Calm - N/A   Clear
7:55 AM 69.8 °F - 68.0 °F 94% 30.12 in 10.0 mi Calm Calm - N/A   Clear
8:15 AM 71.6 °F - 68.0 °F 88% 30.12 in 10.0 mi Calm Calm - N/A   Clear
8:35 AM 73.4 °F - 68.0 °F 83% 30.13 in 10.0 mi Calm Calm - N/A   Clear
8:55 AM 75.2 °F - 68.0 °F 78% 30.14 in 10.0 mi Calm Calm - N/A   Clear
9:15 AM 77.0 °F - 68.0 °F 74% 30.15 in 10.0 mi Calm Calm - N/A   Clear
9:35 AM 78.8 °F - 68.0 °F 69% 30.14 in 10.0 mi SSE 3.5 mph - N/A   Clear
9:55 AM 78.8 °F - 68.0 °F 69% 30.14 in 7.0 mi Calm Calm - N/A   Clear
10:15 AM 80.6 °F 83.2 °F 68.0 °F 65% 30.14 in 7.0 mi ESE 3.5 mph - N/A   Clear
10:35 AM 82.4 °F 85.4 °F 68.0 °F 62% 30.13 in 4.0 mi ESE 3.5 mph - N/A   Haze
10:55 AM 82.4 °F 84.6 °F 66.2 °F 58% 30.13 in 5.0 mi Calm Calm - N/A   Haze
11:15 AM 84.2 °F 85.6 °F 64.4 °F 51% 30.12 in 7.0 mi NE 3.5 mph - N/A   Scattered Clouds
11:35 AM 87.8 °F 88.5 °F 62.6 °F 43% 30.12 in 7.0 mi ENE 5.8 mph - N/A   Scattered Clouds
11:55 AM 87.8 °F 87.6 °F 60.8 °F 40% 30.11 in 7.0 mi Calm Calm - N/A   Clear
12:15 PM 87.8 °F 88.5 °F 62.6 °F 43% 30.10 in 7.0 mi ESE 8.1 mph - N/A   Scattered Clouds
12:35 PM 87.8 °F 88.5 °F 62.6 °F 43% 30.10 in 10.0 mi East 4.6 mph - N/A   Clear
12:55 PM 87.8 °F 87.6 °F 60.8 °F 40% 30.10 in 10.0 mi Calm Calm - N/A   Scattered Clouds
1:15 PM 89.6 °F 89.5 °F 60.8 °F 38% 30.10 in 10.0 mi Calm Calm - N/A   Scattered Clouds
1:35 PM 89.6 °F 89.5 °F 60.8 °F 38% 30.09 in 7.0 mi South 6.9 mph - N/A   Scattered Clouds
1:55 PM 91.4 °F 91.4 °F 60.8 °F 36% 30.08 in 7.0 mi North 5.8 mph - N/A   Mostly Cloudy
2:15 PM 89.6 °F 88.9 °F 59.0 °F 36% 30.07 in 7.0 mi Calm Calm - N/A   Mostly Cloudy
2:35 PM 87.8 °F 87.1 °F 59.0 °F 38% 30.07 in 10.0 mi Calm Calm - N/A   Overcast
2:55 PM 87.8 °F 87.1 °F 59.0 °F 38% 30.07 in 10.0 mi Calm Calm - N/A   Overcast
3:15 PM 82.4 °F 85.4 °F 68.0 °F 62% 30.07 in 10.0 mi West 6.9 mph - N/A Rain Light Rain
3:35 PM 77.0 °F - 69.8 °F 78% 30.06 in 10.0 mi WSW 4.6 mph - N/A Rain , Thunderstorm Light Thunderstorms and Rain
3:55 PM 82.4 °F 85.4 °F 68.0 °F 62% 30.06 in 10.0 mi WSW 6.9 mph - N/A   Clear
4:15 PM 87.8 °F 90.4 °F 66.2 °F 49% 30.05 in 10.0 mi WSW 4.6 mph - N/A   Clear
4:35 PM 86.0 °F 89.4 °F 68.0 °F 55% 30.04 in 10.0 mi West 5.8 mph - N/A   Scattered Clouds
4:55 PM 87.8 °F 90.4 °F 66.2 °F 49% 30.03 in 10.0 mi WNW 5.8 mph - N/A   Clear
5:15 PM 87.8 °F 89.4 °F 64.4 °F 46% 30.03 in 10.0 mi SW 3.5 mph - N/A   Clear
5:35 PM 87.8 °F 89.4 °F 64.4 °F 46% 30.02 in 10.0 mi Calm Calm - N/A   Clear
5:55 PM 87.8 °F 91.4 °F 68.0 °F 52% 30.02 in 10.0 mi Calm Calm - N/A   Clear
6:15 PM 87.8 °F 91.4 °F 68.0 °F 52% 30.02 in 10.0 mi WNW 4.6 mph - N/A   Clear
6:35 PM 86.0 °F 88.2 °F 66.2 °F 51% 30.02 in 10.0 mi West 5.8 mph - N/A   Clear
6:55 PM 86.0 °F 87.3 °F 64.4 °F 48% 30.03 in 10.0 mi West 6.9 mph - N/A   Clear
7:15 PM 82.4 °F 84.6 °F 66.2 °F 58% 30.03 in 10.0 mi West 4.6 mph - N/A   Clear
7:35 PM 82.4 °F 85.4 °F 68.0 °F 62% 30.03 in 10.0 mi WSW 5.8 mph - N/A   Clear
7:55 PM 80.6 °F 82.3 °F 64.4 °F 58% 30.04 in 10.0 mi Calm Calm - N/A   Clear
8:15 PM 80.6 °F 82.3 °F 64.4 °F 58% 30.04 in 10.0 mi Calm Calm - N/A   Clear
8:35 PM 78.8 °F - 66.2 °F 65% 30.04 in 10.0 mi Calm Calm - N/A   Clear
8:55 PM 77.0 °F - 68.0 °F 74% 30.05 in 10.0 mi Calm Calm - N/A Thunderstorm Clear
9:15 PM 77.0 °F - 68.0 °F 74% 30.07 in 10.0 mi NE 4.6 mph - N/A   Mostly Cloudy
9:35 PM 77.0 °F - 68.0 °F 74% 30.07 in 10.0 mi Calm Calm - N/A   Mostly Cloudy
9:55 PM 77.0 °F - 68.0 °F 74% 30.08 in 10.0 mi Calm Calm - N/A   Mostly Cloudy
10:15 PM 77.0 °F - 68.0 °F 74% 30.09 in 10.0 mi Calm Calm - N/A   Overcast
10:35 PM 77.0 °F - 68.0 °F 74% 30.10 in 10.0 mi Calm Calm - N/A   Mostly Cloudy
10:55 PM 77.0 °F - 68.0 °F 74% 30.09 in 10.0 mi Calm Calm - N/A   Scattered Clouds
11:15 PM 73.4 °F - 68.0 °F 83% 30.09 in 10.0 mi Calm Calm - N/A   Clear
11:35 PM 73.4 °F - 69.8 °F 88% 30.09 in 10.0 mi Calm Calm - N/A   Clear